GW6948 Weather Reports


Display with metric or nautical units.
time (UTC)temp
F
wind
direction
speed
MPH
gust
MPH
rain 1hr
in
rain 24hr
in
rain mn
in
humidity
%
barometer
mb
20260506004233 72 340 4.0 5.0 0.00 0.00 0.00 35 1011.8
20260506003728 71 4 4.0 6.0 0.00 0.00 0.00 35 1011.9
20260506003225 72 277 2.0 3.0 0.00 0.00 0.00 35 1011.8
20260506002721 72 215 3.0 3.0 0.00 0.00 0.00 35 1011.7
20260506002217 72 356 5.0 8.0 0.00 0.00 0.00 36 1012.0
20260506001713 72 346 2.0 5.0 0.00 0.00 0.00 36 1011.8
20260506001211 73 326 6.0 8.0 0.00 0.00 0.00 35 1011.8
20260506000708 73 41 4.0 5.0 0.00 0.00 0.00 35 1011.9
20260506000205 72 20 2.0 2.0 0.00 0.00 0.00 36 1011.9
20260505235703 72 344 3.0 3.0 0.00 0.00 0.00 36 1011.8
20260505235200 71 251 5.0 6.0 0.00 0.00 0.00 35 1011.9
20260505234657 71 56 1.0 2.0 0.00 0.00 0.00 36 1011.8
20260505234154 73 164 3.0 3.0 0.00 0.00 0.00 33 1012.0
20260505233650 72 120 1.0 2.0 0.00 0.00 0.00 34 1012.2
20260505233148 72 155 1.0 2.0 0.00 0.00 0.00 34 1011.9
20260505232646 71 115 2.0 3.0 0.00 0.00 0.00 36 1011.8
20260505232143 71 154 1.0 1.0 0.00 0.00 0.00 34 1012.0
20260505231639 71 41 3.0 5.0 0.00 0.00 0.00 33 1012.3
20260505231139 70 34 2.0 3.0 0.00 0.00 0.00 36 1012.2
20260505230636 70 43 1.0 1.0 0.00 0.00 0.00 37 1011.9
20260505230132 71 238 3.0 3.0 0.00 0.00 0.00 36 1012.2
20260505225629 73 246 4.0 5.0 0.00 0.00 0.00 34 1011.9
20260505225125 71 259 2.0 2.0 0.00 0.00 0.00 35 1012.3
20260505224622 71 307 2.0 2.0 0.00 0.00 0.00 35 1012.4
20260505224119 69 299 2.0 2.0 0.00 0.00 0.00 36 1012.4
20260505223616 71 51 7.0 10.0 0.00 0.00 0.00 36 1012.3
20260505223113 71 136 1.0 2.0 0.00 0.00 0.00 37 1012.6
20260505222609 70 143 3.0 3.0 0.00 0.00 0.00 38 1012.5
20260505222105 70 333 6.0 7.0 0.00 0.00 0.00 37 1012.4
20260505221602 70 56 1.0 1.0 0.00 0.00 0.00 38 1012.6
20260505221059 70 357 2.0 3.0 0.00 0.00 0.00 41 1012.7
20260505220556 72 294 3.0 3.0 0.00 0.00 0.00 37 1012.8
20260505220054 71 113 1.0 1.0 0.00 0.00 0.00 38 1012.7
20260505215552 70 306 1.0 2.0 0.00 0.00 0.00 40 1013.0
20260505215049 69 213 3.0 3.0 0.00 0.00 0.00 41 1012.8
20260505214548 70 162 1.0 1.0 0.00 0.00 0.00 41 1013.1
20260505214044 68 132 1.0 1.0 0.00 0.00 0.00 41 1013.0
20260505213542 68 310 3.0 5.0 0.00 0.00 0.00 43 1013.3
20260505213038 68 347 5.0 7.0 0.00 0.00 0.00 42 1013.1
20260505212534 68 6 5.0 6.0 0.00 0.00 0.00 43 1013.2
20260505212032 68 74 0.0 1.0 0.00 0.00 0.00 43 1013.4
20260505211529 67 40 2.0 2.0 0.00 0.00 0.00 44 1013.2
20260505211025 67 136 2.0 2.0 0.00 0.00 0.00 45 1013.5
20260505210522 67 30 1.0 1.0 0.00 0.00 0.00 45 1013.5
20260505210019 66 71 2.0 3.0 0.00 0.00 0.00 46 1013.5
20260505205517 66 123 5.0 6.0 0.00 0.00 0.00 47 1013.4
20260505205014 67 238 0.0 1.0 0.00 0.00 0.00 43 1013.8
20260505204512 65 79 1.0 2.0 0.00 0.00 0.00 46 1013.9
20260505204009 65 53 3.0 5.0 0.00 0.00 0.00 47 1013.9
20260505203505 65 30 5.0 7.0 0.00 0.00 0.00 47 1013.6
20260505203002 65 35 5.0 8.0 0.00 0.00 0.00 47 1013.6
20260505202458 66 53 3.0 5.0 0.00 0.00 0.00 45 1013.8
20260505201954 65 71 2.0 3.0 0.00 0.00 0.00 48 1013.8
20260505201451 65 160 3.0 3.0 0.00 0.00 0.00 48 1014.0
20260505200949 64 348 3.0 5.0 0.00 0.00 0.00 51 1013.9
20260505200447 64 345 3.0 3.0 0.00 0.00 0.00 53 1013.8
20260505195942 67 156 1.0 1.0 0.00 0.00 0.00 47 1014.1
20260505195440 65 198 1.0 2.0 0.00 0.00 0.00 50 1014.0
20260505194937 64 347 2.0 2.0 0.00 0.00 0.00 50 1014.0
20260505194434 64 71 1.0 2.0 0.00 0.00 0.00 52 1013.9
20260505193934 64 75 1.0 2.0 0.00 0.00 0.00 52 1013.9
20260505193432 65 108 2.0 2.0 0.00 0.00 0.00 50 1014.2
20260505192930 63 122 1.0 1.0 0.00 0.00 0.00 51 1014.1
20260505192428 62 71 0.0 1.0 0.00 0.00 0.00 55 1014.1
20260505191925 62 165 3.0 3.0 0.00 0.00 0.00 55 1014.5
20260505191424 61 194 2.0 2.0 0.00 0.00 0.00 54 1014.3
20260505190920 60 54 2.0 2.0 0.00 0.00 0.00 58 1014.2
20260505190415 62 354 3.0 5.0 0.00 0.00 0.00 57 1014.2
20260505185910 62 207 3.0 3.0 0.00 0.00 0.00 58 1014.1
20260505185408 60 128 1.0 2.0 0.00 0.00 0.00 58 1014.0
20260505184904 60 352 2.0 5.0 0.00 0.00 0.00 60 1014.2
20260505184401 60 76 2.0 2.0 0.00 0.00 0.00 59 1014.0
20260505183858 59 12 3.0 3.0 0.00 0.00 0.00 61 1014.2
20260505183355 59 71 2.0 2.0 0.00 0.00 0.00 63 1014.2
20260505182851 58 55 1.0 1.0 0.00 0.00 0.00 61 1014.2
20260505182348 58 27 1.0 1.0 0.00 0.00 0.00 61 1014.3
20260505181845 60 78 1.0 2.0 0.00 0.00 0.00 59 1014.1
20260505181342 60 225 2.0 3.0 0.00 0.00 0.00 61 1014.1
20260505180839 59 210 1.0 2.0 0.00 0.00 0.00 63 1014.1
20260505180335 58 262 1.0 2.0 0.00 0.00 0.00 66 1014.1
20260505175832 58 122 1.0 2.0 0.00 0.00 0.00 65 1014.1
20260505175328 57 134 1.0 2.0 0.00 0.00 0.00 68 1014.2
20260505174825 57 113 3.0 5.0 0.00 0.00 0.00 68 1014.1
20260505174323 55 96 0.0 0.0 0.00 0.00 0.00 70 1014.1
20260505173818 56 161 3.0 5.0 0.00 0.00 0.00 70 1014.0
20260505173315 56 101 1.0 1.0 0.00 0.00 0.00 71 1014.0
20260505172812 54 127 2.0 3.0 0.00 0.00 0.00 71 1014.0
20260505172310 54 163 3.0 5.0 0.00 0.00 0.00 74 1014.0
20260505171804 54 71 2.0 2.0 0.00 0.00 0.00 72 1013.9
20260505171301 54 177 1.0 2.0 0.00 0.00 0.00 74 1014.1
20260505170757 54 174 4.0 5.0 0.00 0.00 0.00 74 1013.8
20260505170255 53 158 1.0 2.0 0.00 0.00 0.00 74 1013.9
20260505165755 53 218 1.0 1.0 0.00 0.00 0.00 76 1014.0
20260505165251 52 153 2.0 2.0 0.00 0.00 0.00 76 1013.9
20260505164747 52 169 2.0 2.0 0.00 0.00 0.00 78 1013.9
20260505164244 52 169 4.0 5.0 0.00 0.00 0.00 77 1013.8
20260505163743 51 175 1.0 2.0 0.00 0.00 0.00 79 1013.9
20260505163241 51 152 2.0 2.0 0.00 0.00 0.00 80 1013.6
20260505162738 50 144 1.0 1.0 0.00 0.00 0.00 82 1013.9
20260505162235 50 139 1.0 2.0 0.00 0.00 0.00 82 1013.6
20260505161732 50 146 2.0 2.0 0.00 0.00 0.00 81 1013.6
20260505161230 50 151 2.0 2.0 0.00 0.00 0.00 82 1013.6
20260505160726 50 209 2.0 2.0 0.00 0.00 0.00 80 1013.4
20260505160225 50 137 0.0 1.0 0.00 0.00 0.00 78 1013.6
20260505153203 49 128 0.0 1.0 0.00 0.00 0.00 80 1013.3
20260505152700 49 248 1.0 1.0 0.00 0.00 0.00 81 1013.2
20260505152156 49 344 1.0 1.0 0.00 0.00 0.00 81 1013.2
20260505151651 49 344 1.0 1.0 0.00 0.00 0.00 81 1013.2
20260505151149 48 308 2.0 2.0 0.00 0.00 0.00 81 1013.1
20260505150645 48 314 2.0 2.0 0.00 0.00 0.00 83 1013.0
20260505150142 48 283 0.0 1.0 0.00 0.00 0.00 85 1013.0
20260505140610 47 189 1.0 2.0 0.00 0.00 0.00 89 1012.4
20260505140108 47 148 3.0 3.0 0.00 0.00 0.00 88 1012.4
20260505125024 46 188 1.0 1.0 0.00 0.00 0.00 88 1011.9
20260505124521 46 156 0.0 0.0 0.00 0.00 0.00 88 1011.8
20260505124017 46 175 0.0 1.0 0.00 0.00 0.00 87 1011.8
20260505123514 46 176 0.0 0.0 0.00 0.00 0.00 88 1011.6
20260505123010 46 124 0.0 0.0 0.00 0.00 0.00 87 1011.8
20260505122507 46 196 0.0 1.0 0.00 0.00 0.00 86 1011.6
20260505122004 46 179 0.0 0.0 0.00 0.00 0.00 86 1011.5
20260505121500 46 220 0.0 1.0 0.00 0.00 0.00 87 1011.9
20260505120956 46 203 1.0 1.0 0.00 0.00 0.00 86 1011.8
20260505120453 46 175 0.0 0.0 0.00 0.00 0.00 87 1011.6
20260505115952 46 155 0.0 0.0 0.00 0.00 0.00 86 1011.8
20260505115449 46 164 0.0 0.0 0.00 0.00 0.00 86 1011.6
20260505114947 46 216 0.0 0.0 0.00 0.00 0.00 85 1011.8
20260505114442 46 235 0.0 0.0 0.00 0.00 0.00 84 1011.6
20260505113939 46 221 0.0 0.0 0.00 0.00 0.00 84 1011.8
20260505113436 46 296 0.0 1.0 0.00 0.00 0.00 84 1011.7
20260505112932 46 243 1.0 2.0 0.00 0.00 0.00 84 1011.7
20260505112430 46 253 1.0 2.0 0.00 0.00 0.00 84 1011.7
20260505111925 46 254 0.0 1.0 0.00 0.00 0.00 84 1011.6
20260505111420 46 241 1.0 3.0 0.00 0.00 0.00 85 1011.7
20260505110917 46 211 1.0 1.0 0.00 0.00 0.00 86 1011.4
20260505110414 46 248 0.0 0.0 0.00 0.00 0.00 86 1011.7
20260505101844 46 262 0.0 0.0 0.00 0.00 0.00 92 1011.9
20260505101339 46 267 0.0 0.0 0.00 0.00 0.00 92 1012.2
20260505100835 46 204 1.0 2.0 0.00 0.00 0.00 92 1011.8
20260505100332 46 207 1.0 1.0 0.00 0.00 0.00 92 1011.9
20260505095828 46 220 1.0 1.0 0.00 0.00 0.00 92 1011.9
20260505095326 46 182 2.0 2.0 0.00 0.00 0.00 90 1011.9
20260505094821 46 205 0.0 0.0 0.00 0.00 0.00 89 1011.9
20260505094319 46 222 2.0 2.0 0.00 0.00 0.00 88 1012.3
20260505093814 46 185 3.0 3.0 0.00 0.00 0.00 86 1012.3
20260505093312 46 207 2.0 2.0 0.00 0.00 0.00 84 1012.0
20260505092808 45 208 1.0 1.0 0.00 0.00 0.00 85 1012.2
20260505092307 45 228 2.0 2.0 0.00 0.00 0.00 84 1012.0
20260505091804 45 299 2.0 2.0 0.00 0.00 0.00 84 1012.2
20260505091302 45 249 2.0 2.0 0.00 0.00 0.00 84 1012.0
20260505090800 45 326 4.0 5.0 0.00 0.00 0.00 84 1011.9
20260505090258 45 5 2.0 2.0 0.00 0.00 0.00 85 1012.3
20260505085755 45 14 0.0 1.0 0.00 0.00 0.00 86 1012.2
20260505085253 45 9 0.0 0.0 0.00 0.00 0.00 86 1012.3
20260505084749 45 36 1.0 1.0 0.00 0.00 0.00 86 1012.0
20260505084249 45 297 2.0 2.0 0.00 0.00 0.00 86 1012.4
20260505083745 45 255 3.0 3.0 0.00 0.00 0.00 86 1012.3
20260505083242 45 236 1.0 2.0 0.00 0.00 0.00 87 1012.6
20260505082738 45 203 1.0 2.0 0.00 0.00 0.00 86 1012.4
20260505082236 45 200 0.0 1.0 0.00 0.00 0.00 87 1012.5
20260505081731 45 218 1.0 1.0 0.00 0.00 0.00 87 1012.7
20260505081229 45 162 0.0 0.0 0.00 0.00 0.00 87 1012.8
20260505080726 45 237 2.0 2.0 0.00 0.00 0.00 87 1012.7
20260505080221 45 346 0.0 0.0 0.00 0.00 0.00 87 1012.5
20260505075717 45 333 3.0 3.0 0.00 0.00 0.00 88 1012.6
20260505075214 45 352 0.0 1.0 0.00 0.00 0.00 90 1012.3
20260505074712 45 303 1.0 1.0 0.00 0.00 0.00 92 1012.5
20260505074209 45 17 1.0 1.0 0.00 0.00 0.00 92 1012.8
20260505073706 45 219 2.0 3.0 0.00 0.00 0.00 94 1012.5
20260505073204 44 258 0.0 1.0 0.00 0.00 0.00 95 1013.0
20260505072700 44 233 0.0 0.0 0.00 0.00 0.00 95 1013.0
20260505072156 44 196 0.0 0.0 0.00 0.00 0.00 95 1012.8
20260505071652 44 150 0.0 0.0 0.00 0.00 0.00 94 1013.1
20260505071150 44 133 0.0 0.0 0.00 0.00 0.00 94 1012.7
20260505070647 45 125 0.0 0.0 0.00 0.00 0.00 93 1012.7
20260505070143 45 124 0.0 0.0 0.00 0.00 0.00 93 1012.5
20260505065639 45 208 1.0 1.0 0.00 0.32 0.32 93 1012.7
20260505065136 45 258 0.0 0.0 0.00 0.32 0.32 92 1012.6
20260505064633 46 166 0.0 0.0 0.00 0.32 0.32 91 1012.5
20260505064131 46 166 0.0 0.0 0.00 0.32 0.32 91 1012.2
20260505063628 46 171 2.0 2.0 0.00 0.32 0.32 90 1012.0
20260505063124 46 198 1.0 1.0 0.00 0.32 0.32 91 1011.9
20260505062620 46 155 1.0 2.0 0.00 0.32 0.32 90 1011.8
20260505062118 46 186 1.0 2.0 0.00 0.32 0.32 89 1011.7
20260505061615 46 179 0.0 0.0 0.00 0.32 0.32 89 1011.8
20260505061113 46 86 0.0 0.0 0.00 0.32 0.32 86 1011.9
20260505060610 46 141 1.0 1.0 0.00 0.32 0.32 84 1011.9
20260505060107 46 164 0.0 1.0 0.00 0.32 0.32 84 1011.7
20260505055602 46 173 0.0 1.0 0.00 0.32 0.32 82 1011.8
20260505055059 46 189 3.0 3.0 0.00 0.32 0.32 82 1011.7
20260505054556 46 201 3.0 5.0 0.00 0.32 0.32 83 1011.9
20260505054055 46 251 2.0 3.0 0.00 0.32 0.32 83 1012.0
20260505053551 46 274 2.0 2.0 0.00 0.32 0.32 84 1011.9
20260505053048 46 180 1.0 2.0 0.00 0.32 0.32 84 1012.2
20260505052545 46 237 1.0 1.0 0.00 0.32 0.32 84 1012.2
20260505052043 46 238 5.0 7.0 0.00 0.32 0.32 83 1012.2
20260505051539 46 10 0.0 1.0 0.00 0.32 0.32 83 1012.4
20260505051037 46 331 3.0 3.0 0.00 0.32 0.32 83 1012.4
20260505050535 46 232 0.0 1.0 0.00 0.32 0.32 84 1012.3
20260505041503 45 235 4.0 5.0 0.00 0.32 0.32 90 1011.6
20260505041000 44 246 5.0 7.0 0.00 0.32 0.32 90 1011.6
20260505040457 44 222 3.0 3.0 0.00 0.32 0.32 91 1012.2
20260505035954 44 193 2.0 3.0 0.00 0.32 0.32 90 1012.0
20260505035450 44 296 3.0 3.0 0.00 0.32 0.32 91 1012.2
20260505034948 45 334 1.0 2.0 0.00 0.32 0.32 90 1012.0
20260505034444 45 313 2.0 3.0 0.07 0.32 0.32 91 1011.8
20260505033941 45 294 3.0 3.0 0.07 0.32 0.32 91 1011.8
20260505033437 45 333 6.0 7.0 0.00 0.31 0.31 91 1011.8
20260505032936 45 315 2.0 2.0 0.00 0.31 0.31 91 1011.5
20260505032433 45 214 6.0 8.0 0.05 0.31 0.31 91 1011.2
20260505031929 45 206 3.0 5.0 0.17 0.31 0.31 92 1011.4
20260505031426 45 174 3.0 3.0 0.19 0.30 0.30 93 1012.0
20260505030923 44 214 1.0 2.0 0.07 0.28 0.28 92 1012.0
20260505030419 44 321 3.0 3.0 0.05 0.27 0.27 91 1011.9
20260505025914 45 254 2.0 5.0 0.17 0.27 0.27 90 1011.4
20260505025412 45 231 2.0 3.0 0.12 0.26 0.26 88 1011.4
20260505024911 46 253 3.0 5.0 0.00 0.24 0.24 85 1011.7
20260505024408 46 337 6.0 8.0 0.00 0.24 0.24 84 1012.2
20260505023905 46 352 4.0 7.0 0.00 0.24 0.24 86 1011.8
20260505023402 45 332 6.0 10.0 0.00 0.24 0.24 87 1011.7
20260505022859 45 339 5.0 7.0 0.00 0.24 0.24 88 1011.1
20260505022356 45 310 6.0 8.0 0.00 0.24 0.24 88 1011.2
20260505021853 45 262 6.0 7.0 0.00 0.24 0.24 89 1011.1
20260505021350 45 337 5.0 7.0 0.00 0.24 0.24 89 1010.8
20260505020845 45 354 7.0 9.0 0.00 0.24 0.24 91 1011.1
20260505020341 46 330 3.0 5.0 0.00 0.24 0.24 93 1010.9
20260505015838 46 248 3.0 3.0 0.00 0.24 0.24 94 1010.7
20260505015335 46 323 4.0 7.0 0.07 0.24 0.24 94 1010.9
20260505014833 47 268 4.0 8.0 0.07 0.24 0.24 94 1010.8
20260505014330 48 337 3.0 5.0 0.00 0.23 0.23 95 1011.0
20260505013826 48 272 1.0 2.0 0.17 0.23 0.23 94 1011.6
20260505013323 48 227 1.0 2.0 0.31 0.23 0.23 93 1011.7
20260505012822 48 209 3.0 3.0 0.31 0.20 0.20 92 1012.4
20260505012319 48 192 2.0 2.0 0.24 0.18 0.18 92 1012.6
20260505011815 49 101 1.0 1.0 0.12 0.15 0.15 91 1012.5
20260505011312 48 169 5.0 7.0 0.05 0.14 0.14 90 1012.2
20260505010808 48 197 3.0 5.0 0.07 0.13 0.13 91 1011.7
20260505010304 49 187 3.0 3.0 0.07 0.13 0.13 91 1011.8
20260505005800 49 172 3.0 3.0 0.12 0.12 0.12 89 1011.8
20260505005257 50 109 2.0 2.0 0.28 0.12 0.12 89 1011.8
20260505004755 50 131 4.0 6.0 0.31 0.10 0.10 87 1011.6